Printer-friendly version

IAU Minor Planet Center

Minor Planet Center

MPEC 2008-C07 : 2008 CF

The following Minor Planet Electronic Circular may be linked-to from your own Web pages, but must not otherwise be redistributed electronically.


Read MPEC 2008-C06 Read MPEC 2008-C08


M.P.E.C. 2008-C07                                Issued 2008 Feb. 2, 15:14 UT

     The Minor Planet Electronic Circulars contain information on unusual
         minor planets and routine data on comets.  They are published
   on behalf of Commission 20 of the International Astronomical Union by the
          Minor Planet Center, Smithsonian Astrophysical Observatory,
                          Cambridge, MA 02138, U.S.A.

             Prepared using the Tamkin Foundation Computer Network

                              MPC@CFA.HARVARD.EDU
          URL http://www.cfa.harvard.edu/iau/mpc.html  ISSN 1523-6714

                                    2008 CF

Observations:
     K08C00F* C2008 02 01.24369 08 20 53.23 +23 46 46.8          21.7 V EC007G96
     K08C00F  C2008 02 01.24933 08 20 56.72 +23 46 52.3          20.8 V EC007G96
     K08C00F  C2008 02 01.29638 08 21 26.18 +23 47 41.2                 EC007G96
     K08C00F  C2008 02 01.29691 08 21 26.59 +23 47 41.2                 EC007G96
     K08C00F  C2008 02 01.29745 08 21 26.84 +23 47 41.4          21.4 V EC007G96
     K08C00F  C2008 02 01.29799 08 21 27.17 +23 47 42.2          21.3 V EC007G96
     K08C00F  C2008 02 01.44313 08 23 00.09 +23 49 40.2          20.7 V EC007G96
     K08C00F  C2008 02 01.44366 08 23 00.45 +23 49 40.3          21.2 V EC007G96
     K08C00F  C2008 02 01.44419 08 23 00.81 +23 49 40.7          20.7 V EC007G96
     K08C00F  C2008 02 01.44473 08 23 01.14 +23 49 41.1          21.0 V EC007G96
     K08C00F  C2008 02 01.92508 08 28 54.40 +23 56 32.1                 EC007J95
     K08C00F  C2008 02 01.92818 08 28 56.56 +23 56 34.8          20.4 R EC007J95
     K08C00F  C2008 02 02.39268 08 34 34.17 +24 03 53.4          20.7 V EC007G96
     K08C00F  C2008 02 02.40089 08 34 39.93 +24 03 58.1          21.3 V EC007G96
     K08C00F  C2008 02 02.40132 08 34 40.26 +24 03 58.6          20.5 V EC007G96
     K08C00F  C2008 02 02.40175 08 34 40.58 +24 03 58.7          20.5 V EC007G96
     K08C00F  C2008 02 02.40218 08 34 40.87 +24 03 59.3          20.9 V EC007G96
     K08C00F  C2008 02 02.45093 08 35 15.97 +24 04 25.2          20.9 V EC007G96
     K08C00F  C2008 02 02.45147 08 35 16.33 +24 04 25.7          20.7 V EC007G96
     K08C00F  C2008 02 02.45200 08 35 16.72 +24 04 26.4          20.1 V EC007G96
     K08C00F  C2008 02 02.45255 08 35 17.05 +24 04 26.7          20.9 V EC007G96

Observer details:
G96 Mt. Lemmon Survey.  Observer A. R. Gibbs.  Measurers E. C. Beshore,
    A. Boattini, G. J. Garradd, A. R. Gibbs, A. D. Grauer, R. E. Hill,
    R. A. Kowalski, S. M. Larson, R. H. McNaught.  1.5-m reflector + CCD.
J95 Great Shefford.  Observer P. Birtwhistle.  0.40-m f/6.0 Schmidt-Cassegrain
    + CCD.

Orbital elements:
2008 CF                                                  Earth MOID = 0.0382 AU
Epoch 2007 Oct. 27.0 TT = JDT 2454400.5                 MPC
M 318.30184              (2000.0)            P               Q
n   0.36623740     Peri.   25.71166     -0.86662120     -0.49820434
a   1.9347622      Node   124.37964     +0.45183483     -0.80700466
e   0.4714878      Incl.    1.91437     +0.21169075     -0.31707400
P   2.69           H   26.5           G   0.15           U   7
Residuals in seconds of arc
080201 G96  0.1+  0.1+    080201 G96  0.2+  0.1+    080202 G96  0.0   0.2+
080201 G96  0.4-  0.4-    080201 G96  0.4+  0.1+    080202 G96  0.2+  0.1+
080201 G96  0.2-  0.7+    080201 G96  0.0   0.1+    080202 G96  0.0   0.4+
080201 G96  0.8+  0.2+    080201 J95  0.2-  0.1-    080202 G96  0.5+  0.3-
080201 G96  0.4-  0.2-    080201 J95  0.2+  0.4-    080202 G96  0.0   0.1-
080201 G96  0.5-  0.1+    080202 G96  0.6+  0.2+    080202 G96  0.1+  0.3+
080201 G96  0.1+  0.3+    080202 G96  0.3-  0.0     080202 G96  0.9-  0.4+

Ephemeris:
2008 CF                  a,e,i = 1.93, 0.47, 2                   q = 1.0225
Date    TT    R. A. (2000) Decl.     Delta      r     Elong.  Phase     V
2008 01 25    07 21.74   +21 33.6    0.0776   1.059   164.7    14.2    21.9
2008 01 27    07 34.10   +22 09.9    0.0711   1.054   165.4    13.6    21.7
2008 01 29    07 49.14   +22 48.0    0.0651   1.048   166.6    12.6    21.4
2008 01 31    08 07.48   +23 25.6    0.0595   1.043   168.2    11.1    21.2
2008 02 02    08 29.76   +23 58.9    0.0544   1.039   170.2     9.3    20.9
2008 02 04    08 56.58   +24 21.3    0.0500   1.035   171.7     7.9    20.6
2008 02 06    09 28.23   +24 23.2    0.0463   1.032   171.0     8.6    20.5
2008 02 08    10 04.31   +23 53.5    0.0437   1.029   167.1    12.3    20.5
2008 02 10    10 43.44   +22 43.0    0.0421   1.027   161.2    18.0    20.6
2008 02 12    11 23.31   +20 50.4    0.0417   1.025   154.4    24.6    20.8
2008 02 14    12 01.38   +18 24.8    0.0425   1.023   147.4    31.3    21.0
2008 02 16    12 35.70   +15 42.7    0.0444   1.023   141.0    37.4    21.3
2008 02 18    13 05.36   +13 00.3    0.0473   1.022   135.5    42.6    21.6
2008 02 20    13 30.32   +10 28.9    0.0509   1.023   131.0    46.8    21.9
2008 02 22    13 51.03   +08 14.0    0.0551   1.024   127.6    50.0    22.1
2008 02 24    14 08.12   +06 16.8    0.0598   1.025   125.0    52.3    22.4

Timothy B. Spahr             (C) Copyright 2008 MPC           M.P.E.C. 2008-C07

Read MPEC 2008-C06 Read MPEC 2008-C08


Our Web policy. Index to the CBAT/MPC/ICQ pages.


Valid HTML 4.01!